Location: Budapest
(47.4979°N, 19.0402°E)
Time: 09:50:30
(UTC+02:00)

Vanguard 2 Rocket - All Passes

Search period start: 24 October 2017 00:00
Search period end: 02 November 2017 23:00
Orbit: 555 x 3327 km, 32.9° (Epoch: 23 October)

Date Brightness Start Highest point End Pass type
(mag) Time Alt. Az. Time Alt. Az. Time Alt. Az.
24 Oct - 11:51:25 10° S 11:54:18 15° SSE 11:57:52 10° ESE daylight
24 Oct - 14:01:18 10° SW 14:06:23 26° S 14:14:01 10° SE daylight
24 Oct - 16:13:23 10° WSW 16:19:38 22° SSW 16:28:37 10° SSE daylight
24 Oct - 18:31:24 10° SW 18:33:42 11° SSW 18:36:11 10° SSW visible
25 Oct - 13:03:08 10° SW 13:07:18 22° S 13:13:09 10° ESE daylight
25 Oct - 15:14:32 10° WSW 15:20:02 23° S 15:28:04 10° SE daylight
25 Oct - 17:29:15 10° SW 17:33:44 13° SSW 17:39:10 10° S daylight
26 Oct - 12:05:14 10° SSW 12:08:24 17° SSE 12:12:25 10° SE daylight
26 Oct - 14:15:59 10° SW 14:20:41 22° S 14:27:28 10° SE daylight
26 Oct - 16:29:11 10° SW 16:33:58 16° SSW 16:40:05 10° SSE daylight
27 Oct - 11:07:57 10° S 11:09:37 12° SSE 11:11:29 10° SE daylight
27 Oct - 13:17:38 10° SW 13:21:33 20° S 13:26:56 10° SE daylight
27 Oct - 15:29:55 10° SW 15:34:24 17° SSW 15:40:21 10° SSE daylight
28 Oct - 12:19:29 10° SSW 12:22:36 17° S 12:26:34 10° SE daylight
28 Oct - 14:31:03 10° SW 14:35:03 17° S 14:40:21 10° SSE daylight
29 Oct - 10:21:35 10° SSW 10:23:47 14° SSE 10:26:15 10° SE daylight
29 Oct - 12:32:28 10° SW 12:35:54 17° S 12:40:18 10° SE daylight
29 Oct - 14:47:23 10° SSW 14:48:47 10° SSW 14:50:18 10° S daylight
30 Oct - 11:34:05 10° SW 11:36:53 15° S 11:40:18 10° SE daylight
30 Oct - 13:47:17 10° SSW 13:49:26 12° SSW 13:51:54 10° S daylight
31 Oct - 10:35:51 10° SSW 10:38:00 14° S 10:40:26 10° SE daylight
31 Oct - 12:48:07 10° SSW 12:50:15 12° S 12:52:42 10° SSE daylight
01 Nov - 09:37:50 10° SSW 09:39:11 11° S 09:40:35 10° SSE daylight
01 Nov - 11:49:21 10° SSW 11:51:13 12° S 11:53:20 10° SSE daylight
02 Nov - 10:50:44 10° SSW 10:52:17 12° S 10:53:59 10° SSE daylight
